ASTRA 2G (40364 NORAD) Tracking and Keplerian Element Data

This shows tracking and keplerian element data for the satellite.

Feedback or suggestion? Click here.




ElementValue
Catalog40364
NameASTRA 2G
Epoch Orbit1421
Epoch Day322.76125594
Epoch Year2018
RAAN60.2181
Inclination0.0432
Eccentricity7.46E-05
Argument of Perigee3.6705
Mean Anonmoly296.1536
Mean Motion1.0027141
Decay Rate1.59E-06
L11 40364U 14089A 18322.76125594 .00000159 00000-0 00000-0 0 9999
L22 40364 0.0432 60.2181 0000746 3.6705 296.1536 1.00271410 14210

Live tracking and technical data element details for ASTRA 2G (NORAD 40364). ASTRA 2G can be tracked NOW for your location showing map with azimuth and elevation plus other details from your city location.

Track the satellite on the map from your city or location and see movement details for azimuth, elevation, latitude, longitude, range, height, and movement on the map or in text.







IsCatalogInMostPopularTable: catalog: 40364, numindb: 132
Update: records affected: 1



GetName: 40364 ASTRA 2G

Hit Count: updated at: Mon, 19 Nov 2018 10:58:59 GMT